Simultaneous Nadir Overpasses (SNOs) Predictions

Prediction of SNOs near US between AQUA and NPP Satellite Orbit:

Table of predicted SNOs near US for the next 10.0 days since TLE Epoch: 12/1/2017
Index Date (AQUA) Time (AQUA) AQUA Lat,Lon Date (NPP) Time (NPP) NPP Lat,Lon Distance(km) Time Diff (sec)
1 12/02/2017 08:35:01 20.00,-101.88 12/02/2017 08:26:40 19.10,-102.37 113.01 501
2 12/02/2017 10:11:40 28.08,-124.65 12/02/2017 10:05:34 28.23,-125.42 78.11 366
3 12/05/2017 07:18:43 49.91, -75.97 12/05/2017 07:20:37 50.35, -78.28 171.80 114
4 12/05/2017 08:57:36 49.91,-100.69 12/05/2017 09:02:04 50.51,-103.58 216.25 268
5 12/07/2017 18:16:52 49.95, -80.18 12/07/2017 18:10:52 49.63, -81.79 120.82 360
6 12/07/2017 19:55:45 49.94,-104.90 12/07/2017 19:52:21 49.58,-107.14 166.10 204
7 12/07/2017 21:30:55 36.65,-124.98 12/07/2017 21:29:59 36.15,-127.63 243.13 56
8 12/10/2017 09:23:31 23.39,-113.43 12/10/2017 09:16:07 23.48,-113.97 55.89 444




NCC Satellite Simultaneous Nadir Overpasses (SNOs) Prediction Service
